Location: ??
(31.9467°N, 34.8903°E)
Time: 23:17:50
(UTC+00:00)

Envisat - Visible Passes

Search period start: 22 January 2021 00:00
Search period end: 01 February 2021 00:00
Orbit: 764 x 766 km, 98.1° (Epoch: 22 January)

Date Brightness Start Highest point End Pass type
(mag) Time Alt. Az. Time Alt. Az. Time Alt. Az.
22 Jan 3.4 03:10:59 10° NNE 03:16:03 66° E 03:21:05 10° S visible
22 Jan 6.2 16:02:13 10° WSW 16:04:42 14° W 16:07:12 10° WNW visible
23 Jan 5.1 02:34:53 10° NE 02:39:08 27° E 02:43:21 10° SSE visible
24 Jan 6.3 02:01:21 10° E 02:02:02 10° E 02:02:44 10° E visible
24 Jan 2.9 03:36:22 10° N 03:41:25 66° WNW 03:46:26 10° SSW visible
25 Jan 3.9 02:59:41 10° NNE 03:04:37 50° E 03:09:31 10° S visible
25 Jan 6.0 15:49:47 10° SW 15:53:12 18° W 15:56:38 10° NW visible
26 Jan 5.5 02:23:55 10° NE 02:27:40 20° E 02:31:22 10° SE visible
26 Jan 3.6 04:02:06 10° N 04:06:41 35° WNW 04:11:16 10° SW visible
27 Jan 2.9 03:24:56 10° N 03:30:01 86° WNW 03:35:06 10° SSW visible
28 Jan 4.5 02:48:28 10° NNE 02:53:11 38° E 02:57:52 10° SSE visible
28 Jan 5.8 15:37:42 10° SSW 15:41:43 24° W 15:45:45 10° NW visible
29 Jan 5.9 02:13:12 10° ENE 02:16:10 16° E 02:19:08 10° SE visible
29 Jan 3.2 03:50:30 10° N 03:55:20 46° WNW 04:00:10 10° SW visible
30 Jan 3.2 03:13:33 10° NNE 03:18:37 73° ESE 03:23:41 10° S visible
30 Jan 6.4 16:05:17 10° WSW 16:07:18 12° W 16:09:20 10° WNW visible
31 Jan 5.0 02:37:20 10° NE 02:41:44 29° E 02:46:06 10° SSE visible
